Theta_e
348 348 346 349 349 349 345 347 348 346 345 346 345 345 345 345 346 345 345 343 340 340 337 345 346 346 348 349 348 348 347 346 345 343 344 347 345 344 343 341 341 340 340
348 350 346 348 350 349 347 344 351 349 348 345 344 345 346 347 348 347 346 348 342 341 340 338 344 345 347 350 350 347 345 344 339 342 343 342 343 342 343 344 341 339 337
351 352 350 350 350 351 345 347 347 350 350 348 345 343 345 346 347 349 349 347 348 343 341 339 336 337 339 346 349 347 346 347 345 344 345 344 346 344 343 342 342 343 343
354 353 352 351 352 349 352 351 348 352 352 350 347 346 346 347 348 348 349 349 348 348 347 343 343 343 340 343 348 350 348 347 346 344 342 340 340 342 343 342 342 343 342
353 354 352 353 354 352 352 351 350 351 352 352 350 347 347 347 348 346 347 348 348 348 347 347 345 343 344 350 350 346 346 348 348 348 347 346 343 342 343 344 343 342 342
356 355 353 353 354 351 351 352 351 351 350 352 350 348 348 348 347 346 345 347 346 348 347 348 350 348 340 342 350 349 348 347 348 348 348 346 345 344 344 344 342 343 342
354 355 354 354 353 352 353 354 353 353 352 351 350 349 349 349 348 347 346 346 346 347 347 348 348 346 349 345 338 345 348 348 346 347 347 344 345 344 343 341 343 342 342
351 353 354 352 353 351 354 354 354 352 352 350 351 352 357 351 348 348 347 347 346 346 346 347 348 349 349 349 349 339 335 338 338 341 343 343 342 342 343 342 342 343 342
351 354 354 351 352 353 352 352 353 354 351 351 352 348 355 356 349 350 350 349 348 347 345 346 346 349 351 349 349 350 344 338 338 341 343 343 343 342 342 343 341 340 342
351 352 351 351 351 351 351 351 351 353 354 352 352 350 348 351 357 354 347 347 350 351 350 347 346 348 351 350 349 349 350 348 344 342 342 343 343 343 343 342 342 339 339
353 352 352 351 351 352 352 351 352 355 351 353 350 351 352 351 350 354 362 349 350 345 348 349 348 348 349 351 350 351 350 348 345 345 345 345 344 344 343 344 344 341 338
351 353 354 355 350 351 351 352 351 353 352 352 353 353 351 350 351 351 358 352 348 343 346 346 348 349 348 349 350 350 350 349 346 345 345 346 346 346 345 344 344 344 340
350 351 353 353 353 351 352 350 351 351 353 351 353 351 350 350 353 349 352 353 351 351 350 347 349 349 349 349 350 350 347 344 342 341 342 346 346 345 345 344 345 345 343
352 352 352 353 352 349 352 351 351 349 350 353 354 353 351 351 352 350 352 352 352 352 351 352 349 343 349 347 348 342 343 341 344 343 341 344 346 346 346 345 346 346 345
352 351 352 353 355 353 352 353 350 351 351 352 351 351 352 351 351 353 350 354 351 364 359 354 349 351 349 349 350 349 349 349 348 346 345 345 345 346 346 346 345 345 345
352 352 353 355 356 355 354 354 351 352 352 351 350 351 352 351 351 351 352 352 352 350 353 349 349 352 353 351 351 350 348 347 346 344 342 343 344 345 346 346 344 344 345
353 355 354 356 355 354 354 354 351 351 352 352 351 351 351 352 352 350 351 353 352 352 350 348 350 352 356 355 353 351 349 349 347 345 342 343 343 347 347 348 348 348 348
353 354 356 357 356 355 355 355 354 352 352 353 352 352 353 351 353 353 352 353 352 352 351 352 351 352 352 354 355 355 352 349 348 347 345 344 343 346 347 346 347 346 348
356 357 357 358 356 354 354 354 354 353 352 353 353 352 353 352 353 353 353 352 352 353 353 353 351 351 352 352 353 354 354 350 352 350 349 347 345 346 346 347 346 346 346
356 358 357 356 353 353 354 351 352 353 351 352 353 353 352 352 353 355 353 350 348 350 352 353 351 350 350 350 353 350 350 353 350 348 348 347 347 347 346 346 346 346 346
357 350 355 354 353 351 352 352 351 351 351 352 352 352 352 353 353 352 349 349 349 352 350 352 350 349 347 346 346 344 345 343 343 343 343 342 343 348 351 347 345 346 346
355 354 348 339 337 349 351 347 347 350 351 351 351 351 353 351 352 349 349 347 352 352 353 350 349 347 349 348 344 343 339 337 336 334 342 338 335 336 338 339 346 348 348
354 352 350 343 345 347 346 345 344 348 350 352 350 353 352 350 352 353 350 348 350 350 350 353 353 352 351 348 345 344 338 338 337 334 335 334 334 336 335 335 335 341 348
353 354 353 352 350 346 337 337 339 341 349 351 352 353 353 350 351 353 350 352 353 353 353 351 352 353 351 345 342 340 339 338 337 337 340 340 339 340 340 340 340 339 338
347 347 347 348 350 349 343 338 342 344 347 349 351 351 348 349 352 345 348 349 352 353 351 352 351 349 342 334 331 332 333 337 337 338 340 339 340 339 340 341 342 341 340
343 343 343 343 342 341 343 341 340 338 344 347 348 350 347 345 344 345 347 350 352 353 352 346 342 343 334 332 330 333 335 338 338 338 342 341 340 338 342 344 342 343 343
Wind_Speed
9 11 10 8 7 6 7 7 9 9 9 8 9 9 9 8 7 9 8 10 13 13 15 19 17 18 17 16 16 14 13 11 10 10 11 11 11 10 10 10 10 9 9
9 8 9 9 8 8 7 6 8 9 10 10 10 10 10 9 9 9 10 9 10 13 15 20 20 19 19 18 18 17 16 14 13 13 13 13 13 13 13 12 11 11 9
10 9 8 8 5 6 8 8 7 10 9 11 11 10 10 11 10 10 10 9 10 12 14 17 21 21 22 21 21 19 16 16 15 14 15 14 14 14 14 13 13 12 11
12 9 9 8 7 4 6 7 7 8 9 9 11 11 11 11 11 12 12 11 10 11 13 17 18 19 20 21 23 23 21 20 19 17 17 17 15 16 15 14 14 13 13
13 12 9 9 7 6 5 6 6 7 7 7 9 11 12 12 13 16 14 13 12 11 12 14 14 19 21 22 23 25 24 23 21 19 18 18 18 16 16 15 14 14 13
14 15 13 10 8 7 5 5 5 5 6 5 8 10 12 13 13 15 14 14 15 13 13 11 10 14 18 22 25 25 25 24 23 21 20 20 19 16 16 16 16 15 14
15 14 13 11 9 8 6 6 7 6 6 6 7 11 12 14 14 15 16 17 15 13 15 14 14 13 13 13 20 25 27 27 25 22 22 19 16 16 15 16 17 17 16
14 14 14 12 9 9 7 7 7 7 6 6 4 5 4 9 15 15 14 15 16 16 17 17 16 15 14 12 13 16 22 23 22 21 19 17 16 16 14 15 16 17 17
15 16 15 16 11 10 8 8 8 6 6 6 7 5 2 1 6 7 10 14 15 17 18 18 18 18 17 16 14 16 18 19 20 20 17 17 16 14 14 13 15 17 17
16 16 17 14 14 12 10 8 9 8 7 7 6 8 11 6 2 1 4 6 11 16 18 18 19 19 19 19 19 19 17 18 19 21 21 22 21 19 17 16 14 16 17
15 15 17 14 15 15 13 12 9 8 7 7 8 8 7 9 8 7 6 5 8 11 13 17 20 20 20 19 19 19 22 25 24 23 21 22 23 23 21 19 17 17 18
13 14 15 15 14 16 17 13 11 10 9 9 8 7 9 7 6 9 6 6 7 8 11 14 15 19 20 19 20 20 17 21 22 24 24 23 23 23 24 22 21 20 19
14 15 14 14 15 16 17 14 14 11 11 12 11 10 10 9 9 13 10 8 7 10 8 7 12 13 15 18 16 18 19 21 20 22 24 22 22 22 23 23 20 21 21
14 13 15 16 19 18 15 15 15 14 13 12 12 12 11 11 12 15 12 8 4 11 4 6 7 8 9 15 15 17 18 21 21 21 22 21 22 22 22 24 23 24 24
13 15 15 16 16 16 16 16 15 16 14 12 12 13 12 11 13 11 12 12 12 5 6 8 4 4 5 6 8 9 13 14 15 13 15 16 19 22 24 25 25 25 26
13 16 15 13 14 15 15 16 17 18 17 16 15 13 14 12 12 14 12 11 11 11 8 2 5 2 5 6 9 10 10 14 18 18 18 16 16 19 22 25 26 28 29
13 15 12 13 14 15 16 17 20 18 18 17 16 15 15 13 13 14 13 12 12 13 11 10 4 6 6 6 7 7 9 10 10 11 14 17 17 17 19 21 23 24 27
13 14 13 15 15 15 16 17 19 19 19 19 19 18 16 15 14 15 15 13 12 10 12 9 9 9 7 6 8 9 9 10 10 10 12 14 18 20 19 22 22 22 23
12 13 13 15 14 15 17 18 18 19 20 18 19 18 18 16 16 16 15 14 13 13 12 12 10 11 7 9 8 9 9 10 11 11 15 15 15 18 22 23 23 23 23
11 11 9 11 11 14 14 15 13 16 19 20 20 20 20 17 17 16 17 15 15 12 11 13 10 14 11 6 8 11 11 12 10 12 11 15 17 18 20 21 23 24 24
9 10 10 11 11 15 16 16 16 17 19 21 21 21 22 20 18 18 16 15 15 14 14 11 13 12 11 10 8 10 10 12 11 13 15 17 18 19 18 19 23 24 23
12 12 13 14 7 18 18 19 19 18 19 20 21 23 22 19 19 22 21 19 13 13 14 14 13 10 8 10 9 9 10 11 10 7 10 15 14 18 18 20 19 20 19
14 15 16 18 19 21 24 23 22 20 22 22 24 22 21 21 19 16 18 20 20 20 18 13 14 12 10 9 9 9 11 12 13 13 13 18 15 17 17 19 20 18 18
12 14 17 19 20 26 24 20 21 21 24 26 27 27 24 23 18 15 16 15 18 18 18 17 16 13 9 8 8 10 11 12 13 13 10 11 12 14 14 16 18 20 21
14 16 17 18 18 20 24 27 26 15 17 19 24 26 29 29 22 22 18 20 19 17 15 17 16 14 14 15 14 10 12 12 10 7 5 11 13 13 13 13 11 13 13
14 15 17 16 13 15 16 19 23 17 21 23 25 22 29 31 29 26 22 22 20 19 17 8 10 14 14 11 11 12 11 12 7 8 2 8 10 9 7 1 7 1 4
Wind_Direction
231 240 236 244 242 240 232 226 221 217 219 225 219 220 226 221 212 228 224 221 221 221 217 213 214 216 217 224 229 224 229 230 243 246 245 246 251 257 264 258 253 253 249
227 227 238 234 235 235 226 235 222 222 221 223 227 223 225 233 216 223 226 210 225 221 216 212 217 220 222 223 230 226 227 229 234 239 249 253 251 254 257 253 254 252 253
231 234 230 227 230 226 233 242 226 227 223 223 228 228 233 233 232 223 218 224 212 221 219 215 225 230 230 229 229 231 236 240 242 241 248 254 256 253 253 252 251 250 250
231 233 238 238 225 224 224 217 212 224 225 228 226 229 233 229 224 218 224 225 228 223 221 229 227 231 231 226 224 233 240 244 245 248 250 253 257 257 255 253 250 250 252
230 234 240 247 237 240 232 221 209 217 222 230 239 228 224 232 231 220 221 222 229 229 230 227 238 233 233 230 230 232 237 243 247 249 251 255 258 254 254 253 251 248 250
237 236 241 240 241 238 217 213 220 216 244 227 245 233 232 228 229 233 228 226 226 225 224 228 222 231 235 234 232 234 236 240 243 247 250 252 253 252 250 250 248 247 248
243 229 228 236 231 239 224 210 215 220 237 233 248 249 230 231 232 235 233 232 235 223 229 229 231 236 233 248 238 232 232 236 243 242 246 250 251 248 251 250 248 246 246
241 235 226 231 229 239 224 229 230 222 227 233 248 258 252 216 225 231 229 238 234 234 232 233 236 233 232 232 238 238 233 235 237 238 241 247 249 247 250 249 247 248 246
246 244 234 227 225 233 227 230 237 222 228 233 232 236 285 281 220 186 224 233 236 238 241 240 235 234 231 233 235 241 237 231 232 234 239 245 248 248 249 252 248 246 245
247 245 244 236 229 237 237 236 238 236 225 245 231 234 241 267 323 247 229 241 245 242 244 241 239 235 234 235 237 237 241 244 239 241 242 245 248 252 253 252 251 247 245
257 249 249 243 234 235 234 231 236 230 239 236 243 245 245 257 244 243 284 243 230 237 238 240 240 238 236 236 239 243 243 245 249 248 247 248 247 247 249 250 249 247 245
261 260 249 249 242 242 239 227 233 233 240 248 257 251 249 259 256 246 261 271 261 279 261 258 240 239 236 238 239 242 235 246 253 252 249 249 246 245 245 247 249 250 244
252 254 254 247 248 245 244 238 235 234 243 245 244 254 262 248 254 263 263 268 260 251 227 234 230 241 238 235 243 246 246 251 254 258 248 245 240 242 244 243 246 247 244
259 263 260 246 241 240 240 237 236 235 240 245 246 251 263 264 257 262 260 271 256 259 244 265 254 222 227 228 240 252 247 261 270 258 240 239 240 239 242 242 247 241 242
254 256 254 247 237 233 234 234 232 233 236 237 244 249 254 261 262 256 253 242 261 267 261 163 233 201 222 242 253 253 252 262 260 253 231 239 243 242 243 242 240 239 243
247 250 251 244 241 236 233 229 232 232 230 234 242 246 251 256 261 265 258 243 247 266 281 223 228 243 264 261 264 258 257 253 251 251 239 239 248 251 248 243 241 244 245
249 254 253 245 237 239 236 231 230 233 232 236 241 242 249 252 256 258 238 255 231 235 255 265 258 256 270 262 261 264 258 264 263 259 239 243 245 249 245 245 247 251 247
255 255 252 242 241 242 241 236 231 233 233 237 239 242 247 247 246 251 256 244 240 235 249 255 284 290 268 265 267 261 265 266 263 254 262 254 251 248 246 250 250 251 244
242 230 234 237 244 245 242 242 238 240 236 240 242 242 248 248 249 252 246 254 234 231 232 252 270 261 266 267 260 262 259 264 263 256 263 260 261 259 253 250 247 250 249
221 196 203 231 245 253 251 251 247 240 243 246 247 250 246 244 246 245 247 250 252 243 236 250 265 266 258 258 260 275 254 235 248 262 256 257 255 257 259 254 250 250 248
220 208 190 188 210 242 241 236 242 244 249 249 248 250 247 242 238 242 246 245 242 233 244 248 254 259 260 267 277 295 289 279 281 267 263 266 254 247 247 250 254 252 247
222 219 216 210 204 231 233 227 224 232 239 245 251 250 251 251 248 243 240 231 230 234 244 258 262 264 288 276 275 279 287 288 291 271 263 274 279 273 265 265 258 237 247
245 244 240 244 232 219 223 225 228 224 222 228 234 240 244 244 241 241 239 236 236 238 238 247 261 271 289 285 284 281 278 281 280 284 291 284 282 276 273 269 267 263 251
264 259 259 251 241 232 233 239 240 234 228 223 221 221 223 230 234 227 238 241 234 238 239 238 249 259 267 263 265 271 274 279 280 271 230 273 291 286 282 278 267 259 258
282 275 269 267 261 260 261 259 260 266 269 258 239 225 221 219 225 228 230 236 240 233 236 228 233 242 258 265 252 261 261 260 272 284 270 275 280 296 297 297 287 251 258
285 283 281 279 283 294 294 287 273 282 281 276 261 253 243 237 223 231 229 222 227 230 230 218 242 251 263 265 262 241 256 262 260 272 169 280 289 318 311 300 355 194 228